BANDWAGON-4S (66309 NORAD) Tracking and Keplerian Element Data

This shows tracking and keplerian element data for the satellite.

Feedback or suggestion? Click here.




ElementValue
Catalog66309
NameBANDWAGON-4S
Epoch Orbit728
Epoch Day354.17183648
Epoch Year2025
RAAN0.0125
Inclination45.4064
Eccentricity0.0001375
Argument of Perigee145.2012
Mean Anonmoly214.8964
Mean Motion15.18282789
Decay Rate7.713E-05
L11 66309U 25248S 25354.17183648 .00007713 00000+0 38266-3 0 9997
L22 66309 45.4064 0.0125 0001375 145.2012 214.8964 15.18282789 7280



Live tracking and technical data element details for BANDWAGON-4S (NORAD 66309). BANDWAGON-4S can be tracked NOW for your location showing map with azimuth and elevation plus other details from your city location.







IsCatalogInMostPopularTable: catalog: 66309, numindb: 6
Update: records affected: 1



GetName: 66309 BANDWAGON-4S

Hit Count: updated at: Tue, 21 Apr 2026 20:28:02 GMT